Location: Rounton
(54.4000°N, 1.3500°W)
Time: 13:24:20
(UTC+00:00)

Transit 2A Rocket - Pass Details

Date: 06 December 2021
Orbit: 584 x 918 km, 66.7° (Epoch: 21 January)

Event Time Altitude Azimuth Distance (km) Brightness Sun altitude
Rises 11:48:56 0° 296° (WNW) 3,527 8.2 13.0°
Reaches altitude 10° 11:51:53 10° 309° (NW) 2,608 7.4 13.0°
Maximum altitude 11:56:57 26° 4° (N) 1,731 6.4 13.1°
Drops below altitude 10° 12:02:00 10° 60° (ENE) 2,602 7.5 13.0°
Sets 12:04:56 0° 73° (ENE) 3,518 8.2 13.0°
